Content
SEND FEEDBACK

Daily
Averages
Monthly
Summary
United States of America

GRAND MARAIS, MINNESOTA


Home > North America > United States > Minnesota
Elevation: 1818 feet     Latitude: 48 05N     Longitude: 090 46W

WEATHER
 
SELECT A DAY
Number of Records: 136,923;   Date Range: 7/30/98 - 10/21/14
 
SHARE

PRINT THIS DATA

[ ← Previous Day ]
WEATHER ALMANAC - AUGUST 18, 2014
[ Next Day → ]
[ °C ]   °F
Weather ElementAverageHighLow
Temperature58.5 °F60.1 °F (9:56 am)55.9 °F (1:56 am)
Dewpoint55.7 °F57.9 °F (1:56 pm)51.1 °F (8:56 pm)
Humidity90.7 %96 % (4:56 am)78 % (11:56 am)
Barometer29.78 in29.95 in (2:56 am)29.66 in (11:56 pm)
Wind Speed8.2 mph13.8 mph (11:56 am)
Wind Gust20.7 mph (2:56 pm)
Weather ElementAverage
Wind DirectionNE (47.5 °)

Weather ElementTotal
Precipitation0.26 in
Heating Degree Days7 (Base 65)
Growing Degree Days8 (Base 50)
Averaged from 24 records on August 18, 2014
WEATHER CONDITIONS BREAKOUT
WIND DIRECTION BREAKOUT
WEATHER BY HOUR - AUGUST 18, 2014
[ °C ]   °F
Local TimeTemperatureDewpointHumidityBarometerVisibilityWind DirectionWind SpeedGust SpeedPrecipitationEventsConditions
12:56 AM57.0 °F53.1 °F87 %29.95 inNE (40°)5.8 mph
1:56 AM57.0 °F52.0 °F83 %29.91 inNE (40°)8.1 mph
2:56 AM57.9 °F51.1 °F78 %29.89 inNE (40°)8.1 mph
3:56 AM57.9 °F52.0 °F81 %29.88 inENE (60°)10.4 mph
4:56 AM57.0 °F53.1 °F87 %29.86 inENE (60°)12.7 mph18.4 mph
5:56 AM57.0 °F53.1 °F87 %29.86 inENE (60°)10.4 mph
6:56 AM55.9 °F54.0 °F93 %29.84 inNE (50°)11.5 mph0.10 in
7:56 AM57.0 °F55.0 °F93 %29.83 inNE (40°)8.1 mph0.06 in
8:56 AM57.9 °F55.9 °F93 %29.81 inENE (60°)9.2 mph
9:56 AM59.0 °F57.0 °F93 %29.80 inENE (60°)6.9 mph
10:56 AM59.0 °F57.9 °F96 %29.80 inENE (60°)10.4 mph0.01 in
11:56 AM59.0 °F57.9 °F96 %29.78 inENE (60°)10.4 mph0.01 in
12:56 PM59.0 °F57.9 °F96 %29.77 inENE (60°)11.5 mph
1:56 PM59.0 °F57.0 °F93 %29.78 inEast (80°)12.7 mph
2:56 PM59.0 °F57.0 °F93 %29.75 inENE (70°)13.8 mph20.7 mph0.02 in
3:56 PM59.0 °F57.0 °F93 %29.73 inENE (60°)10.4 mph18.4 mph0.01 in
4:56 PM59.0 °F57.0 °F93 %29.74 inENE (70°)10.4 mph0.01 in
5:56 PM59.0 °F57.0 °F93 %29.72 inENE (60°)10.4 mph0.04 in
6:56 PM59.0 °F57.0 °F93 %29.71 inNE (50°)8.1 mph
7:56 PM60.1 °F57.0 °F90 %29.70 inENE (60°)3.5 mph
8:56 PM60.1 °F57.0 °F90 %29.70 inCalm
9:56 PM59.0 °F57.9 °F96 %29.68 inCalm
10:56 PM60.1 °F57.0 °F90 %29.68 inVariable3.5 mph
11:56 PM60.1 °F57.0 °F90 %29.66 inCalm
Hourly data recorded from KGNA, located miles away from Grand Marais, Minnesota







STORIES FROM OUR PARTNERS